Location: Andeville
(49.2608°N, 2.1643°E)
Time: 11:26:52
(UTC+00:00)

Daily predictions for brighter satellites

Satellite Brightness Start Highest point End
(mag) Time Altitude Azimuth Time Altitude Azimuth Time Altitude Azimuth
Cosmos 1656 3.8 16:24:30 10° NNW 16:30:04 86° WSW 16:35:40 10° SSE
Cosmos 1933 4.4 16:30:35 10° SE 16:33:55 26° E 16:37:17 10° NNE
USA 229 DEB 3.9 16:27:28 10° NW 16:34:46 81° NE 16:42:33 10° SE
USA 229 3.9 16:27:34 10° NW 16:34:52 80° NE 16:42:39 10° SE
Cosmos 1464 Rocket 4.1 16:29:29 10° S 16:35:51 80° E 16:42:16 10° NNE
Cosmos 1937 Rocket 3.8 16:31:15 10° NNW 16:36:24 45° ENE 16:41:29 10° SE
Cosmos 1500 Rocket 3.6 16:35:03 10° N 16:39:27 57° ENE 16:43:48 10° SSE
Cosmos 1666 4.4 16:37:38 10° NE 16:39:31 13° ENE 16:41:22 10° E
SL-16 R/B 4.5 16:34:52 10° N 16:39:32 23° NW 16:44:13 10° WSW
Spot 1 4.4 16:35:07 10° NNE 16:39:46 62° ESE 16:44:40 10° S
Nadezhda 4 Rocket 4.0 16:34:55 10° N 16:41:17 78° E 16:47:36 10° SSE
SL-24 R/B - RUBIN 2 4.0 16:37:19 10° NNW 16:41:44 41° NE 16:45:52 10° ESE
SeaSat 1 3.8 16:37:58 10° NNE 16:42:24 34° NW 16:46:48 10° WSW
Cosmos 2322 Rocket 3.8 16:39:29 10° N 16:42:43 15° NNE 16:45:56 10° ENE
ATLAS 2AS CENTAUR R/B 4.1 16:36:10 10° W 16:42:57 31° NNW 16:49:27 10° NE
Cosmos 990 Rocket 4.0 16:38:11 10° NNW 16:43:25 86° ENE 16:48:35 10° SSE
Cosmos 1697 Rocket 2.7 16:40:05 10° NNW 16:45:43 69° ENE 16:51:19 10° SE
FengYun 1-2 T 4.2 16:41:12 10° SSE 16:46:45 70° ENE 16:52:16 10° N
Cosmos 372 Rocket 4.5 16:42:41 10° N 16:47:33 38° ENE 16:52:25 10° SE
Cosmos 1271 Rocket 4.3 16:44:15 10° SW 16:47:55 36° WNW 16:51:40 10° N
Sich 1 3.6 16:45:11 10° N 16:49:07 34° ENE 16:53:04 10° SE
Cosmos 1980 Rocket 2.5 16:44:30 10° NNW 16:49:56 43° NE 16:55:18 10° SE
NOAA 6 4.1 16:45:06 10° SSE 16:50:08 60° ENE 16:55:12 10° N
Cosmos 1805 Rocket 3.8 16:47:00 10° N 16:51:11 45° ENE 16:55:21 10° SSE
Cosmos 2369 3.8 16:46:17 10° NNW 16:51:56 54° NE 16:57:31 10° SE
Cosmos 2221 2.8 16:47:47 10° SSW 16:52:03 73° W 16:56:23 10° N
CZ-4C R/B 3.1 16:49:25 10° NW 16:56:06 52° NE 17:04:02 10° ESE
USA 234 3.3 16:49:48 10° ESE 16:56:21 89° SSW 17:02:56 10° WNW
Cosmos 1842 Rocket 3.8 16:52:28 10° SSW 16:56:55 76° W 17:01:26 10° N
Cosmos 1092 Rocket 4.0 16:50:50 10° N 16:57:10 63° ENE 17:03:26 10° SSE
Cosmos 2084 4.2 16:53:46 10° NW 16:57:59 58° SW 17:02:23 10° SSE
NOSS 3-1 (A) 4.3 16:50:55 10° NW 16:58:20 77° SW 17:07:03 10° SSE
USA 306 3.5 16:56:19 10° WNW 17:00:24 43° N 17:03:35 15° ENE
SL-16 R/B 3.4 16:56:40 10° N 17:00:57 21° NE 17:04:15 13° E
Cosmos 1812 4.1 16:58:12 10° SE 17:00:59 19° E 17:02:42 15° NE
ISS -3.8 16:58:24 10° WNW 17:01:49 83° NNE 17:04:58 12° ESE
Meteor 1-25 Rocket 4.1 16:57:18 10° N 17:02:54 78° ENE 17:08:30 10° SSE
NOSS 2-2 (D) 4.2 16:59:03 10° NW 17:03:58 66° NE 17:10:49 10° SE
NOSS 2-2 (E) 4.3 16:59:13 10° NW 17:04:19 77° NE 17:11:30 10° SE
deb Chang Zheng 4 4.4 17:01:58 10° ESE 17:05:39 28° ENE 17:09:21 10° N
SMAP 3.0 17:01:27 10° SSE 17:06:05 80° ENE 17:10:47 10° NNW
Cosmos 2082 Rocket 2.9 17:01:31 10° SSE 17:06:31 33° ESE 17:10:43 14° NE
Cosmos 1939 Rocket 2.9 17:03:12 10° SSE 17:07:19 89° ESE 17:11:26 10° NNW
Cosmos 858 Rocket 4.5 17:03:38 10° NNW 17:08:57 73° ENE 17:14:13 10° SSE
CORIOLIS 4.1 17:03:42 10° SSE 17:09:05 77° ENE 17:14:33 10° NNW
Cosmos 2333 Rocket 4.1 17:09:07 10° N 17:11:04 12° NNE 17:12:25 11° NE
Cosmos 44 Rocket 4.1 17:06:39 10° NNW 17:11:08 32° NE 17:14:23 16° E
CZ-4B DEB 4.1 17:09:58 10° SSE 17:15:28 76° ENE 17:20:58 10° NNW
Cosmos 2278 3.9 17:10:25 10° NNW 17:15:59 49° NE 17:21:29 10° SE
Cosmos 1602 3.6 17:12:34 10° N 17:16:27 83° E 17:20:19 10° S
Cosmos 1627 Rocket 4.4 17:12:27 10° N 17:18:40 76° E 17:24:47 10° SSE
USA 307 3.5 17:15:07 10° WNW 17:19:13 43° N 17:21:38 22° ENE
AQUARIUS 4.2 17:15:32 10° SSE 17:20:01 88° WSW 17:24:33 10° NNW
Cosmos 540 Rocket 3.4 17:16:24 10° S 17:21:26 63° ESE 17:26:07 12° NNE
Cosmos 2034 Rocket 4.3 17:16:45 10° SSW 17:22:52 68° WNW 17:29:02 10° N
COSMO-SKYMED 1 3.3 17:23:24 20° NE 17:25:38 31° E 17:29:29 10° SSE
ARGOS 3.5 17:20:37 10° SE 17:25:41 43° ENE 17:30:47 10° N
Cosmos 2279 Rocket 4.3 17:20:48 10° SSE 17:26:36 44° E 17:32:25 10° NNE
COSMOS 2406 3.2 17:21:21 10° SSW 17:27:05 74° ESE 17:32:10 13° NNE
Cosmos 1833 Rocket 2.7 17:22:45 10° SSW 17:28:23 88° WNW 17:33:42 12° NNE
Meteor 2-21 4.3 17:23:32 10° N 17:29:40 81° E 17:35:43 10° SSE
Cosmos 1782 2.7 17:25:56 10° S 17:29:54 67° E 17:33:48 10° NNE
ATLAS 5 CENTAUR R/B 2.8 17:22:52 10° NW 17:31:31 44° NNE 17:33:08 28° ENE
Cosmos 1633 Rocket 3.3 17:30:08 10° N 17:34:22 46° ENE 17:38:35 10° SSE
ATLAS CENTAUR R/B 3.8 17:32:21 10° WNW 17:35:06 16° NNW 17:37:49 10° NNE
Cosmos 1818 3.8 17:29:58 10° NNW 17:35:17 48° NE 17:38:50 20° ESE
Cosmos 468 Rocket 4.4 17:30:58 10° SW 17:36:05 64° WNW 17:41:18 10° NNE
Cosmos 2219 Rocket 4.1 17:34:02 10° N 17:36:19 12° NNE 17:36:27 12° NNE
YAOGAN 1 3.9 17:39:35 22° NNE 17:39:35 22° NNE 17:41:45 10° N
ERBS 3.8 17:37:48 10° WNW 17:40:24 22° N 17:41:01 21° N
GEOS 3 Rocket 4.0 17:37:58 23° E 17:40:47 44° NE 17:45:40 10° NNW
CZ-2D R/B 3.3 17:36:58 10° S 17:40:47 82° WSW 17:44:39 10° NNW
USA 308 3.4 17:37:44 10° WNW 17:41:50 44° N 17:43:14 32° NE
Cosmos 1634 Rocket 4.0 17:37:09 10° S 17:43:29 86° E 17:49:52 10° N
SJ-11-01 4.3 17:38:56 10° SSE 17:43:34 56° ENE 17:48:14 10° N
COSMOS 2455 2.8 17:38:20 10° SSW 17:44:19 69° ESE 17:48:14 23° NE
CZ-2C R/B 2.7 17:40:35 13° NNE 17:45:07 50° E 17:50:08 10° S
PAYLOAD B 4.3 17:39:41 10° SSE 17:45:18 82° WSW 17:50:57 10° NNW
Cosmos 1500 3.4 17:42:13 10° NNW 17:45:58 70° W 17:49:39 10° S
Cosmos 2026 Rocket 4.2 17:41:19 10° NNW 17:47:27 71° W 17:53:28 10° S
CZ-4B R/B 3.0 17:42:25 10° SSE 17:47:49 77° ENE 17:53:10 10° NNW
Cosmos 1151 Rocket 3.0 17:44:41 10° S 17:48:55 58° E 17:51:27 23° NNE
Lacrosse 5 rocket 1.4 17:46:00 10° NW 17:49:49 52° NNE 17:50:36 44° ENE
Okean O Rocket 1.5 17:47:27 10° SSE 17:51:52 65° ENE 17:56:18 10° N
CZ-4 R/B 3.7 17:59:39 12° N 17:59:39 12° N 18:00:03 10° N
Cosmos 2208 Rocket 4.3 17:55:03 10° S 18:00:11 47° ESE 18:01:40 38° ENE
Cosmos 1666 Rocket 3.6 17:55:46 10° NNW 18:00:15 83° W 18:04:39 10° S
CZ-4 R/B 4.3 17:57:04 10° SSE 18:01:11 75° ENE 18:05:20 10° N
Meteor 1-11 Rocket 4.0 17:56:54 10° N 18:02:16 44° ENE 18:05:45 21° SE
Meteor 1-10 Rocket 4.5 17:57:52 10° SSE 18:03:18 44° E 18:04:52 36° NE
Cosmos 1470 Rocket 3.6 17:59:05 10° N 18:03:28 54° ENE 18:07:51 10° SSE
Cosmos 2150 Rocket 4.1 17:58:31 10° NNW 18:03:33 49° ENE 18:04:48 40° ESE
H-2A R/B 2.5 17:58:55 10° S 18:04:02 62° W 18:09:03 10° NNW
USA 267 3.4 18:01:04 28° NE 18:04:45 69° NNW 18:11:14 10° WSW
Cosmos 1655 Rocket 4.0 17:59:11 10° N 18:05:31 58° ENE 18:11:47 10° SSE
Cosmos 1328 Rocket 3.5 18:02:04 10° S 18:06:27 64° E 18:07:30 47° NE
Cosmos 2360 Rocket 3.2 18:03:06 10° NNW 18:07:10 27° NNE 18:07:10 27° NNE
Landsat 5 3.5 18:08:41 53° SE 18:08:41 53° SE 18:12:12 10° S
USA 305 3.2 18:04:25 10° WNW 18:08:33 49° NNE 18:08:46 49° NNE
SKYMED 2 3.5 18:12:01 34° NNE 18:13:53 90° SE 18:18:13 10° SSW
Cosmos 2180 Rocket 4.4 18:08:57 10° S 18:15:16 76° E 18:21:33 10° NNE
Cosmos 1666 3.2 18:11:45 10° NNW 18:15:25 57° W 18:19:04 10° S
Cosmos 841 Rocket 3.8 18:10:31 10° SW 18:15:38 62° WNW 18:18:54 22° NNE
Feng Yun 1-1 Rocket 4.2 18:11:22 10° SSE 18:17:17 74° ENE 18:23:08 10° NNW
Meteor 2-8 Rocket 4.3 18:12:42 10° S 18:18:50 78° E 18:25:02 10° NNE
ATLAS CENTAUR R/B 2.5 18:11:51 10° WSW 18:19:49 62° NNW 18:20:43 50° NNE
Cosmos 1125 Rocket 3.4 18:16:28 10° NNW 18:21:42 63° ENE 18:22:14 59° E
Cosmos 2322 Rocket 2.4 18:22:34 10° NNW 18:27:49 51° NE 18:27:49 51° NE
NOSS 3-4 (A) 4.5 18:27:49 10° NW 18:33:43 33° NNE 18:33:59 33° NNE
Cosmos 1980 Rocket 3.6 18:28:42 10° NW 18:33:53 37° WSW 18:39:00 10° S
SL-08 RB Rocket 3.9 18:30:32 10° S 18:35:10 71° WSW 18:39:47 10° NNW
ATLAS 2AS CENTAUR R/B 3.9 18:29:54 10° NW 18:36:13 27° N 18:37:27 26° NNE
Cosmos 1812 4.1 18:32:52 10° SW 18:36:28 37° WNW 18:37:47 28° NNW
ISS -1.7 18:35:29 10° W 18:37:58 25° SW 18:37:58 25° SW
USA 306 3.8 18:36:32 10° WNW 18:39:35 42° NW 18:39:35 42° NW
CZ-4C R/B 3.5 18:37:54 10° NW 18:44:59 57° WSW 18:53:11 10° SSE
SL-16 R/B 2.0 18:40:12 10° NNW 18:45:55 86° ENE 18:46:11 81° ESE
Cosmos 2082 Rocket 3.0 18:44:57 10° SW 18:50:26 48° NW 18:52:35 33° N
Cosmos 44 Rocket 3.8 18:48:07 10° NW 18:52:57 56° WSW 18:53:10 55° SW
Cosmos 2333 Rocket 3.8 18:52:01 10° NNW 18:54:26 22° N 18:54:26 22° N
USA 307 4.5 18:55:18 10° WNW 18:57:40 31° NW 18:57:40 31° NW
COSMO-SKYMED 1 4.2 19:00:37 27° NW 19:01:47 32° WNW 19:05:39 10° SW
GEOS 3 Rocket 4.4 19:19:06 49° WSW 19:19:06 49° WSW 19:23:50 10° NW
Cosmos 2219 Rocket 4.2 19:16:40 10° NNW 19:18:11 18° N 19:18:11 18° N
CZ-2C R/B 4.4 19:22:06 16° NNW 19:25:10 27° WNW 19:29:27 10° WSW
Okean O Rocket 4.4 19:25:52 10° SW 19:28:39 16° W 19:31:27 10° NW
Lacrosse 5 rocket 4.1 19:25:10 10° WNW 19:26:12 17° WNW 19:26:12 17° WNW
COSMOS 2455 4.2 19:25:22 10° W 19:30:45 32° NW 19:31:23 32° NNW
BREEZE-M DEB (TANK) 4.4 19:27:05 10° SW 19:44:57 67° SSW 19:44:57 67° SSW
USA 267 4.1 19:48:25 42° NNW 19:48:25 42° NNW 19:53:28 10° WNW
Cosmos 2360 Rocket 4.1 19:46:48 10° NNW 19:48:57 24° NW 19:48:57 24° NW
Cosmos 2322 Rocket 4.3 20:07:02 10° NW 20:09:40 23° WNW 20:09:40 23° WNW
ATLAS 2AS CENTAUR R/B 4.5 20:21:47 10° NW 20:24:52 25° NNW 20:24:52 25° NNW
